Flag for U.S.A. Weather past 2 weeks in Brockton, Massachusetts, U.S.A.

Now
68 °F

Mild.


Feels Like: 68 °F
Forecast: 65 / 83 °F
Wind: 10 mph from West

Location: East Milton

Current Time: Aug 4, 2015 at 10:33:28 PM

Latest Report: Aug 4, 2015 at 9:54 PM


Visibility: N/A

Pressure: 29.90 "Hg

Humidity: 87%

Dew point: 64 °F

Location of BrocktonLocation

Historic Weather in Brockton — Graph

°F

Brockton temperature yesterday

Maximum temperature yesterday: 88 °F (at 2:54 PM)
Minimum temperature yesterday: 67 °F (at 12:54 AM)
Average temperature yesterday: 76 °F

Past Weeks' High & Low Weather Summary

 TemperatureHumidityPressure
High90 °F (Jul 29, 11:54 AM)100% (Jul 28, 3:54 AM)30.08 "Hg (Jul 28, 3:54 AM)
Low59 °F (Jul 24, 4:54 AM)33% (Aug 2, 2:54 PM)29.58 "Hg (Jul 21, 6:54 PM)
Average73 °F70%29.88 "Hg
* Reported Jul 20 8:54 PM — Aug 4 8:54 PM, Brockton, Weather by CustomWeather, © 2015

Note: Actual official high and low records may vary slightly from our data, if they occured in-between our weather recording intervals... More about our weather records

Advertising

Brockton weather history for previous 24 hours

 ConditionsComfort  
Time TempWeatherWind HumidityBarometerVisibility
8:54 PM
Tue, Aug 4
70 °FMild.7 mph81%29.89 "HgN/A
7:54 PM67 °FMild.7 mph93%29.87 "HgN/A
6:54 PM71 °FMild.8 mph71%29.87 "HgN/A
5:54 PM73 °FMild.7 mph62%29.85 "HgN/A
4:54 PM72 °FMild.10 mph68%29.84 "HgN/A
3:54 PM81 °FWarm.10 mph60%29.82 "HgN/A
2:54 PM85 °FWarm.18 mph48%29.81 "HgN/A
1:54 PM86 °FWarm.13 mph51%29.83 "HgN/A
12:54 PM84 °FWarm.14 mph57%29.85 "HgN/A
11:54 AM82 °FWarm.9 mph63%29.86 "HgN/A
10:54 AM77 °FWarm.8 mph79%29.87 "HgN/A
9:54 AM74 °FMild.6 mph85%29.88 "HgN/A
8:54 AM69 °FMild.7 mph90%29.88 "HgN/A
7:54 AM68 °FMild.12 mph96%29.88 "HgN/A
6:54 AM69 °FMild.12 mph90%29.86 "HgN/A
5:54 AM71 °FMild.10 mph96%29.86 "HgN/A
4:54 AM71 °FMild.10 mph96%29.85 "HgN/A
3:54 AM71 °FMild.10 mph96%29.85 "HgN/A
2:54 AM71 °FMild.12 mph96%29.85 "HgN/A
1:54 AM71 °FMild.16 mph93%29.84 "HgN/A
12:54 AM72 °FMild.13 mph91%29.84 "HgN/A
11:54 PM
Mon, Aug 3
72 °FMild.14 mph87%29.84 "HgN/A
10:54 PM73 °FMild.14 mph81%29.84 "HgN/A
Weather by CustomWeather, © 2015

See weather overviewHow to use our weather pages